Terminal Aerodrome Forecast
Issued by NWS

Home | Current Version | Previous Version | Graphics & Text | Print | Product List | Glossary On
Versions: 1 2 3 4 5 6 7 8 9 10 11 12 13 14 15 16
000
FTUS43 KICT 220300 AAB
TAFRSL
TAF AMD
KRSL 220304Z 2203/2224 18011KT P6SM VCTS BKN100CB
     FM220600 VRB03KT P6SM VCTS OVC090CB
     FM221600 19012KT P6SM SCT120=

USA.gov is the U.S. government's official web portal to all federal, state and local government web resources and services.